Time,TemperatureF,DewpointF,PressureIn,WindDirection,WindDirectionDegrees,WindSpeedMPH,WindSpeedGustMPH,Humidity,HourlyPrecipIn,Conditions,Clouds,dailyrainin,SolarRadiationWatts/m^2,SoftwareType,DateUTC
2013-02-22 00:01:00,34.0,33.0,-100.00,NNE,12,2.0,3.0,96,-99.99,,,-99.99,0.230000,,2013-02-22 08:01:00,
2013-02-22 00:11:00,34.0,33.0,-100.00,NNE,12,2.0,3.0,96,-99.99,,,-99.99,0.230000,,2013-02-22 08:11:00,
2013-02-22 00:41:00,34.0,33.0,-100.00,North,0,2.0,2.0,96,-99.99,,,0.01,0.120000,,2013-02-22 08:41:00,
2013-02-22 00:52:00,34.0,33.0,-100.00,North,0,2.0,2.0,96,-99.99,,,0.01,0.120000,,2013-02-22 08:52:00,
2013-02-22 01:03:00,34.0,33.0,-100.00,North,0,2.0,2.0,96,-99.99,,,0.01,0.120000,,2013-02-22 09:03:00,
2013-02-22 01:11:00,34.0,33.0,-100.00,North,0,2.0,2.0,96,-99.99,,,0.01,0.120000,,2013-02-22 09:11:00,
2013-02-22 01:41:00,33.0,32.0,-100.00,NNE,22,0.0,1.0,97,-99.99,,,-99.99,0.230000,,2013-02-22 09:41:00,
2013-02-22 01:52:00,33.0,32.0,-100.00,NNE,22,0.0,1.0,97,-99.99,,,-99.99,0.230000,,2013-02-22 09:52:00,
2013-02-22 02:01:00,33.0,32.0,-100.00,NNE,22,0.0,1.0,97,-99.99,,,-99.99,0.230000,,2013-02-22 10:01:00,
2013-02-22 02:11:00,33.0,32.0,-100.00,NNE,22,0.0,1.0,97,-99.99,,,-99.99,0.230000,,2013-02-22 10:11:00,
2013-02-22 02:42:00,34.0,33.0,-100.00,North,356,1.0,2.0,96,-99.99,,,0.01,0.120000,,2013-02-22 10:42:00,
2013-02-22 02:52:00,34.0,33.0,-100.00,North,356,1.0,2.0,96,-99.99,,,0.01,0.120000,,2013-02-22 10:52:00,
2013-02-22 03:01:00,34.0,33.0,-100.00,North,356,1.0,2.0,96,-99.99,,,0.01,0.120000,,2013-02-22 11:01:00,
2013-02-22 03:11:00,34.0,33.0,-100.00,North,356,1.0,2.0,96,-99.99,,,0.01,0.120000,,2013-02-22 11:11:00,
2013-02-22 03:42:00,34.0,33.0,-100.00,NNE,24,1.0,2.0,96,-99.99,,,0.01,0.230000,,2013-02-22 11:42:00,
2013-02-22 03:52:00,34.0,33.0,-100.00,NNE,24,1.0,2.0,96,-99.99,,,0.01,0.230000,,2013-02-22 11:52:00,
2013-02-22 04:02:00,34.0,33.0,-100.00,NNE,24,1.0,2.0,96,-99.99,,,0.01,0.230000,,2013-02-22 12:02:00,
2013-02-22 04:11:00,34.0,33.0,-100.00,NNE,24,1.0,2.0,96,-99.99,,,0.01,0.230000,,2013-02-22 12:11:00,
2013-02-22 04:42:00,33.0,33.0,-100.00,North,11,1.0,2.0,96,-99.99,,,0.01,0.120000,,2013-02-22 12:42:00,
2013-02-22 04:52:00,33.0,33.0,-100.00,North,11,1.0,2.0,96,-99.99,,,0.01,0.120000,,2013-02-22 12:52:00,
2013-02-22 05:01:00,33.0,33.0,-100.00,North,11,1.0,2.0,96,-99.99,,,0.01,0.120000,,2013-02-22 13:01:00,
2013-02-22 05:11:00,33.0,33.0,-100.00,North,11,1.0,2.0,96,-99.99,,,0.01,0.120000,,2013-02-22 13:11:00,
2013-02-22 05:42:00,34.0,33.0,-100.00,NNE,31,1.0,2.0,96,-99.99,,,0.01,0.230000,,2013-02-22 13:42:00,
2013-02-22 05:52:00,34.0,33.0,-100.00,NNE,31,1.0,2.0,96,-99.99,,,0.01,0.230000,,2013-02-22 13:52:00,
2013-02-22 06:01:00,34.0,33.0,-100.00,NNE,31,1.0,2.0,96,-99.99,,,0.01,0.230000,,2013-02-22 14:01:00,
2013-02-22 06:11:00,34.0,33.0,-100.00,NNE,31,1.0,2.0,96,-99.99,,,0.01,0.230000,,2013-02-22 14:11:00,
2013-02-22 06:42:00,34.0,33.0,-100.00,NNE,16,2.0,3.0,96,-99.99,,,0.01,0.230000,,2013-02-22 14:42:00,
2013-02-22 06:53:00,34.0,33.0,-100.00,NNE,16,2.0,3.0,96,-99.99,,,0.01,0.230000,,2013-02-22 14:53:00,
2013-02-22 07:01:00,34.0,33.0,-100.00,NNE,16,2.0,3.0,96,-99.99,,,0.01,0.230000,,2013-02-22 15:01:00,
2013-02-22 07:11:00,34.0,33.0,-100.00,NNE,16,2.0,3.0,96,-99.99,,,0.01,0.230000,,2013-02-22 15:11:00,
2013-02-22 07:41:00,34.0,33.0,-100.00,NNE,31,2.0,3.0,96,-99.99,,,0.01,24.990000,,2013-02-22 15:41:00,
2013-02-22 07:52:00,34.0,33.0,-100.00,NNE,31,2.0,3.0,96,-99.99,,,0.01,24.990000,,2013-02-22 15:52:00,
2013-02-22 08:01:00,34.0,33.0,-100.00,NNE,31,2.0,3.0,96,-99.99,,,0.01,24.990000,,2013-02-22 16:01:00,
2013-02-22 08:11:00,34.0,33.0,-100.00,NNE,31,2.0,3.0,96,-99.99,,,0.01,24.990000,,2013-02-22 16:11:00,
2013-02-22 08:42:00,35.0,33.0,-100.00,North,10,2.0,4.0,94,-99.99,,,0.01,44.160000,,2013-02-22 16:42:00,
2013-02-22 08:52:00,35.0,33.0,-100.00,North,10,2.0,4.0,94,-99.99,,,0.01,44.160000,,2013-02-22 16:52:00,
2013-02-22 09:01:00,35.0,33.0,-100.00,North,10,2.0,4.0,94,-99.99,,,0.01,44.160000,,2013-02-22 17:01:00,
2013-02-22 09:11:00,35.0,33.0,-100.00,North,10,2.0,4.0,94,-99.99,,,0.01,44.160000,,2013-02-22 17:11:00,
2013-02-22 09:42:00,36.0,34.0,-100.00,WSW,249,1.0,3.0,92,-99.99,,,0.01,136.210007,,2013-02-22 17:42:00,
2013-02-22 09:52:00,36.0,34.0,-100.00,WSW,249,1.0,3.0,92,-99.99,,,0.01,136.210007,,2013-02-22 17:52:00,
2013-02-22 10:01:00,36.0,34.0,-100.00,WSW,249,1.0,3.0,92,-99.99,,,0.01,136.210007,,2013-02-22 18:01:00,
2013-02-22 10:11:00,36.0,34.0,-100.00,WSW,249,1.0,3.0,92,-99.99,,,0.01,136.210007,,2013-02-22 18:11:00,
2013-02-22 10:42:00,36.0,34.0,-100.00,SW,226,1.0,2.0,91,-99.99,,,0.01,114.239998,,2013-02-22 18:42:00,
2013-02-22 10:52:00,36.0,34.0,-100.00,SW,226,1.0,2.0,91,-99.99,,,0.01,114.239998,,2013-02-22 18:52:00,
2013-02-22 11:01:00,36.0,34.0,-100.00,SW,226,1.0,2.0,91,-99.99,,,0.01,114.239998,,2013-02-22 19:01:00,
2013-02-22 11:11:00,36.0,34.0,-100.00,SW,226,1.0,2.0,91,-99.99,,,0.01,114.239998,,2013-02-22 19:11:00,
2013-02-22 11:41:00,37.0,34.0,-100.00,WSW,241,2.0,4.0,90,-99.99,,,0.01,155.149994,,2013-02-22 19:41:00,
2013-02-22 11:52:00,37.0,34.0,-100.00,WSW,241,2.0,4.0,90,-99.99,,,0.01,155.149994,,2013-02-22 19:52:00,
2013-02-22 12:01:00,37.0,34.0,-100.00,WSW,241,2.0,4.0,90,-99.99,,,0.01,155.149994,,2013-02-22 20:01:00,
2013-02-22 12:11:00,37.0,34.0,-100.00,WSW,241,2.0,4.0,90,-99.99,,,0.01,155.149994,,2013-02-22 20:11:00,
2013-02-22 12:41:00,37.0,35.0,-100.00,WSW,249,4.0,6.0,90,-99.99,,,0.01,137.490005,,2013-02-22 20:41:00,
2013-02-22 12:52:00,37.0,35.0,-100.00,WSW,249,4.0,6.0,90,-99.99,,,0.01,137.490005,,2013-02-22 20:52:00,
2013-02-22 13:01:00,37.0,35.0,-100.00,WSW,249,4.0,6.0,90,-99.99,,,0.01,137.490005,,2013-02-22 21:01:00,
2013-02-22 13:11:00,37.0,35.0,-100.00,WSW,249,4.0,6.0,90,-99.99,,,0.01,137.490005,,2013-02-22 21:11:00,
2013-02-22 13:42:00,37.0,35.0,-100.00,WSW,253,3.0,5.0,93,-99.99,,,0.01,78.220001,,2013-02-22 21:42:00,
2013-02-22 13:52:00,37.0,35.0,-100.00,WSW,253,3.0,5.0,93,-99.99,,,0.01,78.220001,,2013-02-22 21:52:00,
2013-02-22 14:01:00,37.0,35.0,-100.00,WSW,253,3.0,5.0,93,-99.99,,,0.01,78.220001,,2013-02-22 22:01:00,
2013-02-22 14:11:00,37.0,35.0,-100.00,WSW,253,3.0,5.0,93,-99.99,,,0.01,78.220001,,2013-02-22 22:11:00,
2013-02-22 14:41:00,36.0,34.0,-100.00,West,264,3.0,7.0,95,-99.99,,,0.01,45.330002,,2013-02-22 22:41:00,
2013-02-22 14:52:00,36.0,34.0,-100.00,West,264,3.0,7.0,95,-99.99,,,0.01,45.330002,,2013-02-22 22:52:00,
2013-02-22 15:01:00,36.0,34.0,-100.00,West,264,3.0,7.0,95,-99.99,,,0.01,45.330002,,2013-02-22 23:01:00,
2013-02-22 15:11:00,36.0,34.0,-100.00,West,264,3.0,7.0,95,-99.99,,,0.01,45.330002,,2013-02-22 23:11:00,
2013-02-22 15:41:00,34.0,33.0,-100.00,WNW,292,1.0,2.0,96,-99.99,,,0.02,31.500000,,2013-02-22 23:41:00,
2013-02-22 15:52:00,34.0,33.0,-100.00,WNW,292,1.0,2.0,96,-99.99,,,0.02,31.500000,,2013-02-22 23:52:00,
2013-02-22 16:01:00,34.0,33.0,-100.00,WNW,292,1.0,2.0,96,-99.99,,,0.02,31.500000,,2013-02-23 00:01:00,
2013-02-22 16:11:00,34.0,33.0,-100.00,WNW,292,1.0,2.0,96,-99.99,,,0.02,31.500000,,2013-02-23 00:11:00,
2013-02-22 16:41:00,33.0,33.0,-100.00,NW,309,1.0,3.0,97,-99.99,,,0.02,14.760000,,2013-02-23 00:41:00,
2013-02-22 16:52:00,33.0,33.0,-100.00,NW,309,1.0,3.0,97,-99.99,,,0.02,14.760000,,2013-02-23 00:52:00,
2013-02-22 17:01:00,33.0,33.0,-100.00,NW,309,1.0,3.0,97,-99.99,,,0.02,14.760000,,2013-02-23 01:01:00,
2013-02-22 17:11:00,33.0,33.0,-100.00,NW,309,1.0,3.0,97,-99.99,,,0.02,14.760000,,2013-02-23 01:11:00,
2013-02-22 17:41:00,33.0,33.0,-100.00,North,11,1.0,3.0,97,-99.99,,,0.02,2.320000,,2013-02-23 01:41:00,
2013-02-22 17:52:00,33.0,33.0,-100.00,North,11,1.0,3.0,97,-99.99,,,0.02,2.320000,,2013-02-23 01:52:00,
2013-02-22 18:01:00,33.0,33.0,-100.00,North,11,1.0,3.0,97,-99.99,,,0.02,2.320000,,2013-02-23 02:01:00,
2013-02-22 18:11:00,33.0,33.0,-100.00,North,11,1.0,3.0,97,-99.99,,,0.02,2.320000,,2013-02-23 02:11:00,
2013-02-22 18:41:00,34.0,33.0,-100.00,WNW,290,1.0,2.0,97,-99.99,,,0.02,0.230000,,2013-02-23 02:41:00,
2013-02-22 18:52:00,34.0,33.0,-100.00,WNW,290,1.0,2.0,97,-99.99,,,0.02,0.230000,,2013-02-23 02:52:00,
2013-02-22 19:01:00,34.0,33.0,-100.00,WNW,290,1.0,2.0,97,-99.99,,,0.02,0.230000,,2013-02-23 03:01:00,
2013-02-22 19:11:00,34.0,33.0,-100.00,WNW,290,1.0,2.0,97,-99.99,,,0.02,0.230000,,2013-02-23 03:11:00,
2013-02-22 19:41:00,34.0,33.0,-100.00,NNE,23,1.0,3.0,97,-99.99,,,0.02,0.120000,,2013-02-23 03:41:00,
2013-02-22 19:52:00,34.0,33.0,-100.00,NNE,23,1.0,3.0,97,-99.99,,,0.02,0.120000,,2013-02-23 03:52:00,
2013-02-22 20:01:00,34.0,33.0,-100.00,NNE,23,1.0,3.0,97,-99.99,,,0.02,0.120000,,2013-02-23 04:01:00,
2013-02-22 20:11:00,34.0,33.0,-100.00,NNE,23,1.0,3.0,97,-99.99,,,0.02,0.120000,,2013-02-23 04:11:00,
2013-02-22 20:41:00,34.0,33.0,-100.00,NE,36,1.0,2.0,97,-99.99,,,0.02,0.120000,,2013-02-23 04:41:00,
2013-02-22 20:52:00,34.0,33.0,-100.00,NE,36,1.0,2.0,97,-99.99,,,0.02,0.120000,,2013-02-23 04:52:00,
2013-02-22 21:02:00,34.0,33.0,-100.00,NE,36,1.0,2.0,97,-99.99,,,0.02,0.120000,,2013-02-23 05:02:00,
2013-02-22 21:11:00,34.0,33.0,-100.00,NE,36,1.0,2.0,97,-99.99,,,0.02,0.120000,,2013-02-23 05:11:00,
2013-02-22 21:41:00,34.0,34.0,-100.00,NE,38,1.0,2.0,97,-99.99,,,0.02,0.120000,,2013-02-23 05:41:00,
2013-02-22 21:52:00,34.0,34.0,-100.00,NE,38,1.0,2.0,97,-99.99,,,0.02,0.120000,,2013-02-23 05:52:00,
2013-02-22 22:01:00,34.0,34.0,-100.00,NE,38,1.0,2.0,97,-99.99,,,0.02,0.120000,,2013-02-23 06:01:00,
2013-02-22 22:11:00,34.0,34.0,-100.00,NE,38,1.0,2.0,97,-99.99,,,0.02,0.120000,,2013-02-23 06:11:00,
2013-02-22 22:41:00,35.0,34.0,-100.00,WNW,287,3.0,7.0,97,-99.99,,,0.02,0.120000,,2013-02-23 06:41:00,
2013-02-22 22:52:00,35.0,34.0,-100.00,WNW,287,3.0,7.0,97,-99.99,,,0.02,0.120000,,2013-02-23 06:52:00,
2013-02-22 23:01:00,35.0,34.0,-100.00,WNW,287,3.0,7.0,97,-99.99,,,0.02,0.120000,,2013-02-23 07:01:00,
2013-02-22 23:11:00,35.0,34.0,-100.00,WNW,287,3.0,7.0,97,-99.99,,,0.02,0.120000,,2013-02-23 07:11:00,
2013-02-22 23:41:00,35.0,34.0,-100.00,NE,42,0.0,3.0,97,-99.99,,,0.02,0.230000,,2013-02-23 07:41:00,
2013-02-22 23:52:00,35.0,34.0,-100.00,NE,42,0.0,3.0,97,-99.99,,,0.02,0.230000,,2013-02-23 07:52:00,